Flag for Germany Weather past 2 weeks in Saalfeld/Saale, Thuringia, Germany

Now
50 °F

Partly sunny.


Feels Like: 47 °F
Forecast: 33 / 56 °F
Wind: 8 mph from Northwest

Location: Erfurt-Bindersleben

Current Time: Oct 23, 2014 at 2:06:03 PM

Latest Report: Oct 23, 2014 at 1:20 PM


Visibility: N/A

Pressure: 30.21 "Hg

Humidity: 76%

Dew point: 43 °F

Location of Saalfeld/SaaleLocation

Historic Weather in Saalfeld/Saale — Graph

°F

Saalfeld/Saale temperature yesterday

Maximum temperature yesterday: 46 °F (at 6:20 PM)
Minimum temperature yesterday: 39 °F (at 6:50 AM)
Average temperature yesterday: 44 °F

Past Weeks' High & Low Weather Summary

 TemperatureHumidityPressure
High68 °F (Oct 9, 3:50 PM)100% (Oct 11, 2:20 AM)30.21 "Hg (Oct 11, 2:20 AM)
Low39 °F (Oct 22, 6:50 AM)55% (Oct 15, 2:50 PM)29.47 "Hg (Oct 21, 8:20 PM)
Average55 °F85%29.89 "Hg
* Reported Oct 8 12:20 PM — Oct 23 12:50 PM, Saalfeld/Saale, Weather by CustomWeather, © 2014

Note: Actual official high and low records may vary slightly from our data, if they occured in-between our weather recording intervals... More about our weather records

Advertising

Saalfeld/Saale weather history for previous 24 hours

 ConditionsComfort  
Time TempWeatherWind HumidityBarometerVisibility
12:50 PM
Oct 23
50 °FPartly sunny.6 mph76%30.21 "HgN/A
12:20 PM48 °FPartly sunny.9 mph87%30.21 "HgN/A
11:50 AM48 °FPartly sunny.9 mph82%30.18 "HgN/A
11:20 AM46 °FPartly sunny.10 mph87%30.18 "HgN/A
10:50 AM46 °FPartly sunny.13 mph87%30.18 "HgN/A
10:20 AM46 °FPartly sunny.13 mph82%30.18 "HgN/A
9:50 AM46 °FPartly sunny.12 mph82%30.15 "HgN/A
9:20 AM45 °FBroken clouds.12 mph87%30.15 "HgN/A
8:50 AM45 °FPartly cloudy.9 mph87%30.15 "HgN/A
8:20 AM45 °FPartly cloudy.10 mph87%30.15 "HgN/A
7:50 AM45 °FPartly cloudy.14 mph87%30.12 "HgN/A
7:20 AM45 °FPassing clouds.13 mph87%30.12 "HgN/A
6:50 AM45 °FLight rain. Partly cloudy.16 mph87%30.09 "HgN/A
6:20 AM45 °FPartly cloudy.14 mph87%30.09 "HgN/A
5:50 AM45 °FPassing clouds.13 mph87%30.09 "HgN/A
5:20 AM46 °FPassing clouds.16 mph82%30.07 "HgN/A
4:50 AM46 °FPassing clouds.18 mph82%30.07 "HgN/A
4:20 AM46 °FPassing clouds.17 mph82%30.07 "HgN/A
3:50 AM46 °FPassing clouds.17 mph82%30.07 "HgN/A
3:20 AM46 °FPartly cloudy.17 mph87%30.07 "HgN/A
2:50 AM46 °FPassing clouds.17 mph87%30.04 "HgN/A
2:20 AM46 °FPassing clouds.18 mph87%30.04 "HgN/A
1:50 AM46 °FPassing clouds.23 mph87%30.01 "HgN/A
1:20 AM46 °FPassing clouds.20 mph87%30.01 "HgN/A
12:50 AM46 °FPassing clouds.22 mph93%30.01 "HgN/A
12:20 AM46 °FPassing clouds.21 mph93%30.01 "HgN/A
11:50 PM
Oct 22
46 °FPartly cloudy.23 mph93%29.98 "HgN/A
11:20 PM46 °FPassing clouds.24 mph93%29.98 "HgN/A
10:50 PM46 °FPassing clouds.26 mph93%29.95 "HgN/A
10:20 PM46 °FPassing clouds.25 mph93%29.95 "HgN/A
9:50 PM46 °FPassing clouds.24 mph93%29.95 "HgN/A
9:20 PM46 °FPassing clouds.23 mph93%29.92 "HgN/A
8:50 PM46 °FPassing clouds.26 mph93%29.89 "HgN/A
8:20 PM46 °FPartly cloudy.28 mph93%29.89 "HgN/A
7:50 PM46 °FPassing clouds.26 mph93%29.86 "HgN/A
7:20 PM46 °FLight rain. Passing clouds.25 mph93%29.86 "HgN/A
6:50 PM46 °FLight rain. Partly sunny.22 mph93%29.83 "HgN/A
6:20 PM46 °FLight rain. Broken clouds.25 mph93%29.83 "HgN/A
5:50 PM45 °FLight rain. Broken clouds.22 mph100%29.83 "HgN/A
5:20 PM45 °FLight rain. Broken clouds.22 mph93%29.80 "HgN/A
4:20 PM45 °FLight rain. Broken clouds.18 mph93%29.80 "HgN/A
3:50 PM43 °FLight rain. Broken clouds.21 mph100%29.77 "HgN/A
3:20 PM43 °FLight rain. Broken clouds.25 mph93%29.77 "HgN/A
2:50 PM43 °FLight rain. Broken clouds.29 mph93%29.77 "HgN/A
2:20 PM43 °FLight rain. Broken clouds.28 mph93%29.77 "HgN/A
Weather by CustomWeather, © 2014

See weather overviewHow to use our weather pages